This demonstration page uses our WeatherBlox Daily Observations layout. Learn more.

Hourly Observations for June 7, 2016

Temp ( °F °C ) Dew Point ( °F °C ) Humidity (%) Winds ( mph kmh ) Pressure ( in mb ) Visibility ( mi km ) Precip ( " mm )
12:15 am 00:15 Clear 60 15.3 45 7.4 60 60 NE 7 11 30 1016 10 16.09344 0 0
12:35 am 00:35 Clear 59 15.1 45 7.1 59 59 Calm 30.03 1017 10 16.09344 0 0
12:55 am 00:55 Clear 58 14.6 44 6.9 60 60 NE 6 9 30.03 1017 10 16.09344 0 0
1:15 am 01:15 Clear 57 14.1 45 7 63 63 NE 7 11 30 1016 10 16.09344 0 0
1:35 am 01:35 Clear 57 14 45 7 63 63 NNE 6 9 30.03 1017 10 16.09344 0 0
1:55 am 01:55 Clear 56 13.5 45 7 65 65 NE 9 15 30 1016 10 16.09344 0 0
2:15 am 02:15 Clear 57 14.1 45 7 63 63 NE 9 15 30 1016 10 16.09344 0 0
2:35 am 02:35 Clear 57 13.7 45 7 64 64 NE 8 13 30 1016 10 16.09344 0 0
2:55 am 02:55 Clear 57 14 44 6.8 62 62 ESE 5 7 30 1016 10 16.09344 0 0
3:15 am 03:15 Clear 56 13.5 44 6.9 65 65 E 7 11 30 1016 10 16.09344 0 0
3:35 am 03:35 Clear 55 12.6 44 6.9 68 68 Calm 30.03 1017 10 16.09344 0 0
3:55 am 03:55 Clear 55 12.9 45 7 68 68 ESE 5 7 30 1016 10 16.09344 0 0
4:15 am 04:15 Clear 55 12.7 45 7 69 69 Calm 30.06 1018 10 16.09344 0 0
4:35 am 04:35 Clear 55 12.7 44 6.9 68 68 SSE 3 6 30.06 1018 10 16.09344 0 0
4:55 am 04:55 Clear 53 11.9 44 6.9 72 72 Calm 30.06 1018 10 16.09344 0 0
5:15 am 05:15 Clear 53 11.6 45 7 74 74 Calm 30.06 1018 10 16.09344 0 0
5:35 am 05:35 Clear 53 11.8 45 7.2 74 74 Calm 30.06 1018 10 16.09344 0 0
5:55 am 05:55 Clear 50 9.9 45 7 82 82 ENE 3 6 30.06 1018 10 16.09344 0 0
6:15 am 06:15 Sunny 50 10 46 7.5 85 85 NE 5 7 30.06 1018 10 16.09344 0 0
6:35 am 06:35 Sunny 52 10.9 46 8 82 82 NNE 3 6 30.06 1018 10 16.09344 0 0
6:55 am 06:55 Sunny 54 12.4 48 8.8 79 79 Calm 30.06 1018 10 16.09344 0 0
7:15 am 07:15 Sunny 56 13.5 48 9.1 75 75 Calm 30.03 1017 10 16.09344 0 0
7:35 am 07:35 Sunny 59 15 47 8.5 65 65 E 3 6 30.03 1017 10 16.09344 0 0
7:55 am 07:55 Sunny 60 15.5 47 8.2 62 62 ESE 7 11 30.03 1017 10 16.09344 0 0
8:15 am 08:15 Sunny 61 16 47 8.2 60 60 E 10 17 30.03 1017 10 16.09344 0 0
8:35 am 08:35 Sunny 63 17 47 8.1 56 56 ESE 10 17 30 1016 10 16.09344 0 0
8:55 am 08:55 Sunny 64 17.5 47 8.1 54 54 ESE 10 17 30 1016 10 16.09344 0 0
9:15 am 09:15 Sunny 65 18.1 47 8.1 52 52 E 10 17 30.03 1017 10 16.09344 0 0
9:35 am 09:35 Sunny 65 18.5 47 8.1 51 51 ESE 9 15 30.03 1017 10 16.09344 0 0
9:55 am 09:55 Sunny 67 19.2 47 8.2 49 49 SE 7 11 30 1016 10 16.09344 0 0
10:15 am 10:15 Sunny 67 19.6 47 8.3 48 48 SE 9 15 30 1016 10 16.09344 0 0
10:35 am 10:35 Sunny 68 20.1 47 8.5 47 47 SE 10 17 29.97 1015 10 16.09344 0 0
10:55 am 10:55 Sunny 69 20.6 46 7.8 44 44 SSE 6 9 29.97 1015 10 16.09344 0 0
11:15 am 11:15 Sunny 70 21 46 8 43 43 SSE 7 11 29.97 1015 10 16.09344 0 0
11:35 am 11:35 Sunny 71 21.5 47 8.4 43 43 SE 9 15 29.97 1015 10 16.09344 0 0
11:55 am 11:55 Sunny 71 21.6 46 8 42 42 SSE 9 15 29.97 1015 10 16.09344 0 0
12:15 pm 12:15 Sunny 72 22.1 48 8.9 43 43 SE 8 13 29.97 1015 10 16.09344 0 0
12:35 pm 12:35 Sunny 73 22.6 47 8.2 40 40 S 8 13 29.94 1014 10 16.09344 0 0
12:55 pm 12:55 Sunny 73 22.7 47 8.4 40 40 ESE 8 13 29.94 1014 10 16.09344 0 0
1:15 pm 13:15 Sunny 74 23.5 47 8.4 38 38 SSE 7 11 29.91 1013 10 16.09344 0 0
1:35 pm 13:35 Sunny 75 23.7 47 8.4 38 38 SSE 7 11 29.88 1012 10 16.09344 0 0
1:55 pm 13:55 Sunny 75 24.1 48 8.8 38 38 SE 9 15 29.88 1012 10 16.09344 0 0
2:15 pm 14:15 Sunny 76 24.6 48 8.8 37 37 SE 9 15 29.88 1012 10 16.09344 0 0
2:35 pm 14:35 Sunny 76 24.6 47 8.1 35 35 S 10 17 29.88 1012 10 16.09344 0 0
2:55 pm 14:55 Sunny 77 24.9 47 8.5 35 35 SSE 9 15 29.85 1011 10 16.09344 0 0
3:15 pm 15:15 Sunny 77 25.1 49 9.7 38 38 SE 10 17 29.85 1011 10 16.09344 0 0
3:35 pm 15:35 Sunny 78 25.6 50 9.9 37 37 SSE 8 13 29.85 1011 10 16.09344 0 0
3:55 pm 15:55 Sunny 79 25.9 48 8.8 34 34 S 12 19 29.85 1011 10 16.09344 0 0
4:15 pm 16:15 Sunny 79 26 50 10.1 37 37 SSE 12 19 29.85 1011 10 16.09344 0 0
4:35 pm 16:35 Sunny 79 26.1 49 9.4 35 35 SSE 10 17 29.83 1010 10 16.09344 0 0
4:55 pm 16:55 Sunny 80 26.5 49 9.4 34 34 SSE 10 17 29.8 1009 10 16.09344 0 0
5:15 pm 17:15 Sunny 80 26.7 50 9.9 35 35 S 9 15 29.8 1009 10 16.09344 0 0
5:35 pm 17:35 Sunny 79 26.3 48 8.7 33 33 S 9 15 29.8 1009 10 16.09344 0 0
5:55 pm 17:55 Sunny 80 26.4 49 9.3 34 34 S 13 20 29.8 1009 10 16.09344 0 0
6:15 pm 18:15 Sunny 79 26.2 47 8.5 33 33 S 12 19 29.8 1009 10 16.09344 0 0
6:35 pm 18:35 Sunny 79 26.1 48 8.9 34 34 SSE 12 19 29.77 1008 10 16.09344 0 0
6:55 pm 18:55 Sunny 78 25.7 48 9.1 35 35 S 13 20 29.8 1009 10 16.09344 0 0
7:15 pm 19:15 Sunny 78 25.7 49 9.2 35 35 S 9 15 29.8 1009 10 16.09344 0 0
7:35 pm 19:35 Sunny 77 25.1 47 8.6 35 35 S 10 17 29.83 1010 10 16.09344 0 0
7:55 pm 19:55 Sunny 77 25 49 9.7 38 38 S 10 17 29.8 1009 10 16.09344 0 0
8:15 pm 20:15 Sunny 76 24.5 51 10.6 42 42 S 9 15 29.83 1010 10 16.09344 0 0
8:35 pm 20:35 Sunny 74 23.5 51 10.5 44 44 S 8 13 29.83 1010 10 16.09344 0 0
8:55 pm 20:55 Sunny 72 22.3 52 11.1 49 49 SSE 6 9 29.85 1011 10 16.09344 0 0
9:15 pm 21:15 Clear 70 21 53 11.5 55 55 SSE 6 9 29.85 1011 10 16.09344 0 0
9:35 pm 21:35 Clear 68 20 54 12 60 60 SE 7 11 29.85 1011 10 16.09344 0 0
9:55 pm 21:55 Clear 67 19.3 54 12.1 63 63 SE 7 11 29.85 1011 10 16.09344 0 0
10:15 pm 22:15 Clear 66 19 54 12.2 65 65 ESE 8 13 29.85 1011 10 16.09344 0 0
10:35 pm 22:35 Clear 66 19.1 54 12.1 64 64 SE 8 13 29.85 1011 10 16.09344 0 0
10:55 pm 22:55 Clear 67 19.3 54 12 63 63 SE 9 15 29.85 1011 10 16.09344 0 0
11:15 pm 23:15 Clear 68 20 53 11.6 59 59 SE 10 17 29.85 1011 10 16.09344 0 0
11:35 pm 23:35 Clear 68 19.8 53 11.5 59 59 SSE 9 15 29.85 1011 10 16.09344 0 0
11:55 pm 23:55 Clear 68 20 52 11.2 57 57 SSE 9 15 29.85 1011 10 16.09344 0 0

Powered by AerisWeather